KD9BEW Weather Reports


Display with metric or nautical units.
time (UTC)temp
F
wind
direction
speed
MPH
gust
MPH
rain 1hr
in
rain 24hr
in
rain mn
in
humidity
%
barometer
mb
20260901204602 86 149 3.0 10.0 0.00 0.00 0.00 39 1011.9
20260901203104 86 221 3.0 9.0 0.00 0.00 0.00 38 1011.9
20260901201606 87 193 4.0 12.0 0.00 0.00 0.00 38 1012.0
20260901200110 88 271 3.0 10.0 0.00 0.00 0.00 37 1012.0
20260901194606 88 254 3.0 12.0 0.00 0.00 0.00 36 1012.2
20260901193111 89 210 3.0 14.0 0.00 0.00 0.00 35 1012.4
20260901191607 88 286 4.0 12.0 0.00 0.00 0.00 36 1012.3
20260901190116 89 102 2.0 11.0 0.00 0.00 0.00 35 1012.5
20260901184600 88 257 4.0 14.0 0.00 0.00 0.00 36 1012.6
20260901183106 89 198 2.0 9.0 0.00 0.00 0.00 36 1012.7
20260901181603 87 213 2.0 7.0 0.00 0.00 0.00 37 1012.9
20260901180105 87 185 4.0 14.0 0.00 0.00 0.00 39 1013.0
20260901174603 87 205 1.0 8.0 0.00 0.00 0.00 41 1013.2
20260901173104 86 140 3.0 9.0 0.00 0.00 0.00 43 1013.4
20260901171604 85 274 2.0 9.0 0.00 0.00 0.00 42 1013.5
20260901170106 85 248 3.0 10.0 0.00 0.00 0.00 45 1013.6
20260901164602 84 276 2.0 7.0 0.00 0.00 0.00 46 1013.7
20260901163104 83 236 1.0 5.0 0.00 0.00 0.00 49 1013.9
20260901161600 81 283 2.0 4.0 0.00 0.00 0.00 51 1014.0
20260901160115 81 167 0.0 6.0 0.00 0.00 0.00 53 1014.0
20260901154603 80 133 2.0 4.0 0.00 0.00 0.00 52 1014.3
20260901153105 79 272 1.0 4.0 0.00 0.00 0.00 54 1014.2
20260901151609 78 166 2.0 5.0 0.00 0.00 0.00 59 1014.2
20260901150103 75 0 2.0 7.0 0.00 0.00 0.00 66 1014.4
20260901144603 74 144 1.0 5.0 0.00 0.00 0.00 68 1014.4
20260901143112 73 175 2.0 6.0 0.00 0.00 0.00 70 1014.0
20260901141605 73 136 2.0 5.0 0.00 0.00 0.00 72 1014.0
20260901140110 72 188 2.0 5.0 0.00 0.00 0.00 72 1014.1
20260901134602 71 0 1.0 5.0 0.00 0.00 0.00 75 1014.2
20260901133105 69 0 0.0 1.0 0.00 0.00 0.00 78 1014.2
20260901131603 68 0 0.0 1.0 0.00 0.00 0.00 79 1014.3
20260901124601 65 0 0.0 1.0 0.00 0.00 0.00 82 1013.9
20260901123122 64 0 0.0 3.0 0.00 0.00 0.00 83 1013.8
20260901121610 64 0 0.0 1.0 0.00 0.00 0.00 83 1013.6
20260901114603 63 0 0.0 1.0 0.00 0.00 0.00 85 1013.2
20260901113111 63 0 0.0 1.0 0.00 0.00 0.00 86 1013.0
20260901111608 63 0 0.0 2.0 0.00 0.00 0.00 86 1012.9
20260901110115 64 0 0.0 1.0 0.00 0.00 0.00 86 1012.8
20260901104606 64 0 0.0 1.0 0.00 0.00 0.00 86 1012.6
20260901103111 63 0 0.0 3.0 0.00 0.00 0.00 87 1012.8
20260901101559 64 214 0.0 5.0 0.00 0.00 0.00 87 1012.9
20260901100113 64 0 0.0 3.0 0.00 0.00 0.00 87 1012.9
20260901094602 64 0 1.0 4.0 0.00 0.00 0.00 87 1012.8
20260901093110 64 200 0.0 4.0 0.00 0.00 0.00 88 1012.8
20260901091614 64 0 1.0 3.0 0.00 0.00 0.00 88 1012.8
20260901084604 64 0 0.0 1.0 0.00 0.00 0.00 88 1012.8
20260901083105 64 0 0.0 4.0 0.00 0.00 0.00 88 1012.9
20260901081606 64 232 0.0 3.0 0.00 0.00 0.00 88 1012.9
20260901080107 65 0 1.0 4.0 0.00 0.00 0.00 87 1012.9
20260901074604 65 219 0.0 3.0 0.00 0.00 0.00 87 1012.9
20260901073104 65 200 2.0 4.0 0.00 0.00 0.00 86 1012.8
20260901071605 65 156 1.0 5.0 0.00 0.00 0.00 86 1012.9
20260901070112 65 167 2.0 4.0 0.00 0.00 0.00 86 1012.8
20260901064600 64 146 2.0 4.0 0.00 0.00 0.00 89 1012.9
20260901063100 64 0 0.0 1.0 0.00 0.00 0.00 89 1013.0
20260901061610 64 0 0.0 1.0 0.00 0.00 0.00 90 1013.1
20260901060107 64 0 0.0 0.0 0.00 0.00 0.00 91 1013.1
20260901054608 63 0 0.0 2.0 0.00 0.00 0.00 90 1013.1
20260901053116 64 0 0.0 0.0 0.00 0.00 0.00 89 1013.1
20260901051610 65 0 0.0 0.0 0.00 0.00 0.00 88 1013.2
20260901050105 66 0 0.0 1.0 0.00 0.00 0.00 86 1013.2
20260901044621 68 0 0.0 1.0 0.00 0.00 0.00 86 1013.0
20260901043106 68 206 0.0 3.0 0.00 0.00 0.00 87 1012.8
20260901041602 67 210 0.0 2.0 0.00 0.00 0.00 88 1012.8
20260901040106 67 0 0.0 0.0 0.00 0.00 0.00 86 1012.7
20260901034600 67 0 0.0 1.0 0.00 0.00 0.00 86 1012.6
20260901033107 68 0 0.0 1.0 0.00 0.00 0.00 85 1012.5
20260901031605 68 0 0.0 2.0 0.00 0.00 0.00 84 1012.4
20260901030105 68 0 0.0 1.0 0.00 0.00 0.00 84 1012.5
20260901024610 68 194 0.0 2.0 0.00 0.00 0.00 84 1012.5
20260901023105 68 0 0.0 1.0 0.00 0.00 0.00 84 1012.2
20260901021604 68 0 0.0 1.0 0.00 0.00 0.00 84 1012.2
20260901020105 68 0 0.0 1.0 0.00 0.00 0.00 84 1012.3
20260901014603 69 0 0.0 1.0 0.00 0.00 0.00 83 1012.2
20260901013104 70 0 0.0 0.0 0.00 0.00 0.00 81 1012.1
20260901011608 71 0 0.0 1.0 0.00 0.00 0.00 80 1012.0
20260901004606 74 36 0.0 1.0 0.00 0.00 0.00 74 1011.9
20260901003107 76 0 0.0 0.0 0.00 0.00 0.00 70 1011.7
20260901001602 78 0 0.0 0.0 0.00 0.00 0.00 65 1011.6
20260901000103 81 0 0.0 0.0 0.00 0.00 0.00 61 1011.3
20260831234604 82 0 0.0 0.0 0.00 0.00 0.00 54 1011.3
20260831233109 84 0 0.0 0.0 0.00 0.00 0.00 52 1011.5
20260831231602 85 0 0.0 2.0 0.00 0.00 0.00 50 1011.5
20260831224601 87 15 1.0 3.0 0.00 0.00 0.00 47 1011.4
20260831223106 87 263 1.0 4.0 0.00 0.00 0.00 44 1011.4
20260831221606 88 280 1.0 4.0 0.00 0.00 0.00 55 1011.3
20260831220109 88 140 2.0 7.0 0.00 0.00 0.00 59 1011.2
20260831214623 89 263 1.0 4.0 0.00 0.00 0.00 56 1011.2
20260831213101 89 141 1.0 6.0 0.00 0.00 0.00 54 1011.0
20260831211602 88 269 2.0 9.0 0.00 0.00 0.00 57 1010.7
20260831210058 89 261 2.0 6.0 0.00 0.00 0.00 59 1010.5